Showing default

COSMOS 2609, 68754

Orbit data source: Space-Track

COSMOS 2609, 68754 is a payload satellite owned by VVKO VKS (CIS) in SSO that was launched on Thu, 16 Apr 2026 UTC via a SOYUZ-2-1B launch vehicle from the Plesetsk Missile And Space Complex (PKMTR). Payload-class satellites include a variety of spacecraft equipped with specific instruments for various scientific and technological missions. These include communications satellites like Starlink; space stations such as the ISS; scientific satellites like the Hubble; Earth observation satellites from companies like Planet Labs, Umbra, and HawkEye 360; GPS; miniature CubeSats for education and research; and military/defense satellites.

Loading next visibility...
Identifier
68754, 2026-083B
Orbit
SSO
Country
Flag of CISCIS
Related business
Manufacturer
Unknown (RU)
Mission
Operational spacecraft
Bus & Motor
UNK, Unknown motor
Mass
~500 kg wet, ~500 kg dry
Launch date (UTC)
2026-04-16 (1 month ago)
Launch vehicle
SOYUZ-2-1B
Launch site
Plesetsk Missile And Space Complex (PKMTR)
Object type
Payload
Rocket body
Debris
Shape & HBR
Unknown shape, 14.5 m
Radar Cross Section
RCS unknown

Expand to show TLE details & history
Last TLE update: 8 hours ago

TLE from 8 hours ago
0 COSMOS 2609
1 68754U 26083B   26138.70119144  .00001406  00000-0  97832-4 0  9990
2 68754  98.1184 285.9770 0011569 164.1434 196.0156 15.07237092  4789
Epoch: 2026-05-18T16:49Z
TLE epoch observation values (Epoch: 2026-05-18T16:49:42.940Z)
Latitude
-0.00008°
Longitude
157.16242°
Altitude
555.399 km
Speed
7.58 km/s
True Right ascension
19h 03m 54s
True Declination
0° 00' 00"
Sunlit
Object was in full shadow at epoch
Visualization orbit readout
Latitude
Unknown
Longitude
Unknown
Altitude
Unknown
Speed
Unknown
Apparent Right ascension
Unknown
Apparent Declination
Unknown
Sunlit
N/A
Visualization observer readout
Local Sidereal Time
09:21:24
Azimuth
Unknown
Elevation
Unknown
Doppler factor
Unknown
Orbital elements
Apogee altitude
549.667 km
Perigee altitude
533.656 km
Semi-major axis
6,919.799 km
Eccentricity
0.00116
Inclination
98.1184°
RAAN
285.977°
Arg. of periapsis
164.1434°
True anomaly
195.97907°
Mean anomaly
196.0156°
Eccentric anomaly
195.99733°
Mean motion
3.77053 °/min
Orbital period
95.48 mins
BSTAR
0.000097832
Loading maneuver chart data...
Computing Atmospheric mass density...
Loading historical data...
Loading historical data...
Loading historical data...
Loading historical data...
Loading historical data...
Loading historical data...
Loading historical data...

Documentation

Showing up to 5 results
|